QPF
0.09 0.07 0.03 0.05 0.08 0.09 0.08 0.08 0.11 0.10 0.10 0.10 0.09 0.07 0.06 0.08 0.10 0.11 0.13 0.10 0.08 0.08 0.07 0.07 0.08 0.09 0.09 0.10 0.08 0.07 0.07 0.09 0.09 0.10 0.11 0.11 0.08 0.06 0.06 0.08 0.12 0.12 0.07
0.08 0.07 0.04 0.04 0.09 0.13 0.13 0.12 0.12 0.09 0.08 0.08 0.09 0.09 0.08 0.07 0.08 0.11 0.11 0.14 0.14 0.11 0.10 0.09 0.08 0.09 0.11 0.10 0.09 0.09 0.07 0.08 0.08 0.11 0.12 0.11 0.08 0.06 0.05 0.05 0.08 0.10 0.06
0.03 0.06 0.06 0.09 0.12 0.11 0.08 0.09 0.10 0.08 0.09 0.09 0.08 0.07 0.08 0.07 0.09 0.12 0.11 0.11 0.12 0.11 0.09 0.09 0.09 0.11 0.12 0.11 0.13 0.13 0.08 0.08 0.08 0.11 0.19 0.22 0.11 0.04 0.04 0.05 0.07 0.07 0.07
0.02 0.03 0.06 0.08 0.08 0.07 0.06 0.04 0.05 0.07 0.06 0.07 0.07 0.07 0.07 0.07 0.12 0.15 0.12 0.11 0.09 0.09 0.07 0.08 0.09 0.10 0.12 0.11 0.13 0.16 0.10 0.08 0.10 0.14 0.21 0.24 0.13 0.04 0.05 0.05 0.06 0.05 0.04
0.03 0.04 0.04 0.04 0.05 0.06 0.06 0.04 0.03 0.04 0.03 0.04 0.05 0.05 0.07 0.07 0.11 0.17 0.14 0.10 0.09 0.12 0.14 0.13 0.14 0.13 0.13 0.12 0.15 0.16 0.14 0.10 0.13 0.15 0.12 0.15 0.14 0.08 0.04 0.05 0.05 0.05 0.05
0.03 0.03 0.02 0.03 0.05 0.06 0.05 0.04 0.04 0.04 0.04 0.05 0.05 0.05 0.06 0.06 0.06 0.07 0.07 0.07 0.09 0.17 0.26 0.24 0.19 0.20 0.20 0.22 0.23 0.19 0.15 0.13 0.15 0.16 0.14 0.16 0.14 0.08 0.06 0.04 0.04 0.03 0.03
0.04 0.04 0.03 0.03 0.03 0.03 0.03 0.06 0.06 0.05 0.06 0.07 0.06 0.06 0.07 0.07 0.07 0.06 0.07 0.09 0.09 0.14 0.24 0.23 0.17 0.16 0.21 0.24 0.26 0.21 0.19 0.18 0.16 0.16 0.19 0.19 0.14 0.07 0.05 0.04 0.03 0.03 0.03
0.04 0.04 0.03 0.02 0.03 0.03 0.05 0.06 0.05 0.05 0.07 0.08 0.07 0.06 0.07 0.08 0.08 0.07 0.09 0.11 0.11 0.11 0.13 0.14 0.13 0.12 0.10 0.14 0.21 0.18 0.18 0.16 0.15 0.15 0.18 0.17 0.12 0.08 0.05 0.04 0.02 0.02 0.03
0.02 0.02 0.02 0.02 0.03 0.03 0.05 0.06 0.04 0.05 0.06 0.06 0.06 0.05 0.06 0.07 0.08 0.08 0.09 0.10 0.09 0.10 0.11 0.11 0.11 0.10 0.08 0.09 0.13 0.13 0.13 0.12 0.14 0.18 0.15 0.12 0.10 0.08 0.06 0.05 0.04 0.02 0.03
0.01 0.02 0.02 0.01 0.02 0.02 0.03 0.04 0.05 0.04 0.04 0.03 0.03 0.05 0.08 0.08 0.07 0.07 0.07 0.09 0.08 0.08 0.08 0.09 0.10 0.10 0.09 0.07 0.08 0.09 0.10 0.11 0.12 0.13 0.11 0.09 0.08 0.08 0.06 0.06 0.05 0.04 0.03
0.00 0.00 0.00 0.01 0.01 0.02 0.02 0.02 0.05 0.05 0.04 0.04 0.04 0.05 0.08 0.09 0.07 0.07 0.05 0.07 0.07 0.05 0.06 0.09 0.09 0.07 0.08 0.07 0.07 0.07 0.08 0.09 0.09 0.09 0.10 0.09 0.09 0.09 0.09 0.10 0.08 0.06 0.04
0.01 0.01 0.01 0.00 0.01 0.02 0.02 0.03 0.05 0.03 0.03 0.03 0.03 0.04 0.06 0.06 0.06 0.05 0.03 0.06 0.06 0.05 0.06 0.09 0.08 0.07 0.08 0.10 0.07 0.07 0.08 0.06 0.05 0.06 0.08 0.09 0.09 0.08 0.07 0.07 0.06 0.07 0.06
0.02 0.01 0.00 0.00 0.01 0.02 0.04 0.02 0.03 0.04 0.03 0.03 0.02 0.02 0.04 0.05 0.05 0.05 0.03 0.03 0.04 0.05 0.05 0.06 0.09 0.09 0.09 0.10 0.08 0.07 0.06 0.05 0.05 0.05 0.07 0.07 0.07 0.08 0.07 0.06 0.05 0.06 0.07
0.02 0.01 0.00 0.00 0.00 0.01 0.01 0.01 0.02 0.02 0.02 0.02 0.03 0.04 0.03 0.04 0.04 0.05 0.05 0.04 0.04 0.05 0.04 0.04 0.04 0.05 0.06 0.07 0.09 0.07 0.04 0.05 0.06 0.07 0.07 0.05 0.06 0.07 0.08 0.07 0.06 0.05 0.06
0.01 0.01 0.00 0.00 0.00 0.00 0.01 0.01 0.01 0.01 0.01 0.02 0.03 0.03 0.02 0.03 0.03 0.04 0.05 0.05 0.04 0.04 0.03 0.03 0.03 0.01 0.02 0.04 0.06 0.06 0.04 0.04 0.05 0.05 0.06 0.05 0.04 0.05 0.07 0.07 0.05 0.06 0.06
0.01 0.01 0.00 0.00 0.00 0.00 0.01 0.01 0.01 0.01 0.00 0.01 0.01 0.02 0.02 0.02 0.03 0.03 0.04 0.05 0.04 0.04 0.05 0.05 0.03 0.01 0.01 0.01 0.03 0.05 0.04 0.05 0.05 0.04 0.04 0.04 0.03 0.04 0.06 0.07 0.06 0.06 0.06
0.01 0.00 0.00 0.00 0.00 0.00 0.01 0.01 0.01 0.01 0.01 0.00 0.01 0.01 0.01 0.01 0.01 0.02 0.03 0.03 0.04 0.05 0.05 0.05 0.02 0.01 0.01 0.01 0.02 0.03 0.02 0.03 0.03 0.02 0.02 0.04 0.04 0.04 0.05 0.06 0.06 0.07 0.08
0.01 0.01 0.01 0.00 0.01 0.01 0.00 0.00 0.00 0.00 0.00 0.01 0.01 0.01 0.02 0.02 0.02 0.01 0.03 0.03 0.03 0.04 0.03 0.03 0.02 0.02 0.02 0.02 0.02 0.02 0.02 0.02 0.03 0.02 0.02 0.03 0.05 0.04 0.02 0.02 0.03 0.05 0.06
0.01 0.01 0.00 0.00 0.01 0.01 0.01 0.01 0.00 0.00 0.00 0.00 0.01 0.01 0.01 0.03 0.03 0.03 0.03 0.03 0.02 0.03 0.03 0.02 0.02 0.02 0.02 0.01 0.01 0.01 0.01 0.02 0.03 0.04 0.04 0.04 0.04 0.04 0.03 0.01 0.02 0.03 0.06
0.01 0.01 0.01 0.00 0.01 0.01 0.01 0.00 0.00 0.00 0.00 0.01 0.01 0.01 0.01 0.02 0.03 0.03 0.03 0.03 0.03 0.03 0.03 0.02 0.01 0.01 0.01 0.01 0.01 0.01 0.02 0.02 0.03 0.04 0.05 0.05 0.05 0.06 0.05 0.03 0.02 0.02 0.05
0.00 0.01 0.01 0.00 0.00 0.00 0.00 0.01 0.01 0.01 0.01 0.01 0.01 0.01 0.01 0.01 0.03 0.03 0.03 0.03 0.04 0.04 0.03 0.03 0.02 0.01 0.01 0.01 0.01 0.03 0.02 0.02 0.03 0.03 0.02 0.04 0.05 0.05 0.05 0.04 0.04 0.04 0.05
0.00 0.00 0.00 0.00 0.00 0.00 0.00 0.00 0.01 0.01 0.00 0.01 0.02 0.03 0.03 0.02 0.02 0.03 0.04 0.04 0.04 0.04 0.05 0.04 0.04 0.03 0.02 0.01 0.02 0.04 0.04 0.04 0.04 0.02 0.01 0.02 0.04 0.04 0.04 0.04 0.05 0.06 0.12
0.00 0.00 0.00 0.00 0.01 0.00 0.00 0.00 0.00 0.00 0.00 0.01 0.02 0.04 0.05 0.04 0.03 0.04 0.04 0.03 0.03 0.03 0.04 0.04 0.05 0.06 0.05 0.03 0.03 0.03 0.04 0.04 0.04 0.04 0.02 0.02 0.02 0.03 0.04 0.04 0.05 0.07 0.14
0.00 0.00 0.00 0.00 0.00 0.00 0.00 0.00 0.00 0.00 0.01 0.03 0.06 0.04 0.04 0.04 0.05 0.04 0.04 0.04 0.03 0.03 0.02 0.01 0.03 0.04 0.05 0.05 0.05 0.04 0.03 0.03 0.04 0.04 0.03 0.01 0.01 0.02 0.02 0.02 0.03 0.05 0.10
0.00 0.00 0.00 0.00 0.01 0.00 0.00 0.01 0.01 0.00 0.01 0.01 0.04 0.03 0.03 0.04 0.05 0.04 0.04 0.04 0.03 0.02 0.02 0.02 0.01 0.02 0.03 0.04 0.05 0.04 0.03 0.03 0.03 0.03 0.03 0.02 0.01 0.01 0.01 0.02 0.02 0.03 0.08
0.00 0.00 0.00 0.00 0.00 0.00 0.01 0.01 0.00 0.00 0.00 0.01 0.02 0.02 0.02 0.02 0.03 0.03 0.02 0.03 0.03 0.02 0.02 0.02 0.01 0.01 0.02 0.03 0.04 0.04 0.03 0.03 0.02 0.03 0.02 0.02 0.02 0.01 0.00 0.01 0.01 0.01 0.03
MSLP
1011.32 1010.91 1010.64 1010.54 1010.61 1010.78 1010.95 1011.05 1011.01 1010.81 1010.48 1010.10 1009.76 1009.54 1009.46 1009.56 1009.77 1010.05 1010.32 1010.52 1010.65 1010.71 1010.75 1010.81 1010.92 1011.12 1011.38 1011.68 1011.95 1012.17 1012.29 1012.34 1012.31 1012.27 1012.24 1012.26 1012.34 1012.48 1012.65 1012.82 1012.95 1013.04 1013.08
1010.98 1010.60 1010.38 1010.36 1010.51 1010.75 1010.98 1011.10 1011.05 1010.81 1010.44 1010.01 1009.63 1009.38 1009.31 1009.42 1009.65 1009.94 1010.21 1010.42 1010.53 1010.58 1010.60 1010.66 1010.79 1011.02 1011.31 1011.63 1011.92 1012.15 1012.28 1012.32 1012.29 1012.25 1012.23 1012.27 1012.38 1012.54 1012.73 1012.90 1013.04 1013.11 1013.12
1010.60 1010.25 1010.08 1010.14 1010.37 1010.68 1010.96 1011.10 1011.06 1010.81 1010.41 1009.96 1009.56 1009.30 1009.22 1009.31 1009.53 1009.80 1010.05 1010.22 1010.30 1010.33 1010.35 1010.42 1010.58 1010.84 1011.18 1011.54 1011.86 1012.10 1012.24 1012.27 1012.25 1012.21 1012.21 1012.28 1012.41 1012.60 1012.80 1012.99 1013.11 1013.18 1013.18
1010.17 1009.87 1009.77 1009.89 1010.19 1010.56 1010.88 1011.06 1011.03 1010.79 1010.39 1009.94 1009.54 1009.28 1009.19 1009.26 1009.45 1009.67 1009.85 1009.97 1010.01 1010.02 1010.04 1010.14 1010.34 1010.66 1011.04 1011.44 1011.80 1012.06 1012.20 1012.24 1012.22 1012.20 1012.22 1012.31 1012.47 1012.68 1012.90 1013.08 1013.21 1013.27 1013.28
1009.74 1009.50 1009.46 1009.65 1010.00 1010.42 1010.78 1010.98 1010.97 1010.74 1010.37 1009.94 1009.56 1009.31 1009.21 1009.26 1009.40 1009.56 1009.68 1009.73 1009.73 1009.72 1009.75 1009.88 1010.14 1010.50 1010.94 1011.38 1011.77 1012.04 1012.19 1012.24 1012.24 1012.23 1012.28 1012.39 1012.57 1012.79 1013.02 1013.20 1013.33 1013.40 1013.42
1009.36 1009.17 1009.19 1009.43 1009.83 1010.28 1010.65 1010.87 1010.87 1010.66 1010.31 1009.92 1009.57 1009.34 1009.25 1009.28 1009.37 1009.48 1009.54 1009.54 1009.51 1009.49 1009.54 1009.71 1010.02 1010.43 1010.91 1011.38 1011.78 1012.06 1012.22 1012.28 1012.29 1012.31 1012.37 1012.51 1012.71 1012.94 1013.17 1013.35 1013.48 1013.56 1013.61
1009.08 1008.94 1009.01 1009.30 1009.72 1010.17 1010.54 1010.74 1010.74 1010.54 1010.22 1009.86 1009.55 1009.35 1009.28 1009.30 1009.37 1009.43 1009.46 1009.43 1009.38 1009.37 1009.45 1009.66 1010.00 1010.46 1010.96 1011.44 1011.83 1012.11 1012.26 1012.33 1012.35 1012.39 1012.49 1012.65 1012.87 1013.11 1013.34 1013.52 1013.65 1013.73 1013.81
1008.93 1008.83 1008.95 1009.26 1009.69 1010.12 1010.46 1010.62 1010.59 1010.39 1010.09 1009.76 1009.49 1009.33 1009.28 1009.31 1009.37 1009.42 1009.43 1009.40 1009.36 1009.37 1009.48 1009.72 1010.09 1010.56 1011.06 1011.53 1011.90 1012.15 1012.29 1012.35 1012.39 1012.46 1012.59 1012.78 1013.02 1013.28 1013.51 1013.69 1013.82 1013.92 1014.01
1008.94 1008.88 1009.02 1009.34 1009.75 1010.14 1010.43 1010.54 1010.47 1010.25 1009.94 1009.64 1009.41 1009.28 1009.26 1009.31 1009.39 1009.45 1009.46 1009.44 1009.43 1009.47 1009.62 1009.89 1010.27 1010.73 1011.20 1011.62 1011.95 1012.16 1012.28 1012.34 1012.39 1012.49 1012.66 1012.89 1013.16 1013.43 1013.67 1013.85 1013.99 1014.09 1014.20
1009.08 1009.05 1009.22 1009.53 1009.91 1010.24 1010.46 1010.51 1010.38 1010.13 1009.83 1009.55 1009.35 1009.26 1009.27 1009.34 1009.43 1009.51 1009.54 1009.55 1009.57 1009.65 1009.83 1010.12 1010.50 1010.94 1011.36 1011.73 1011.99 1012.16 1012.24 1012.29 1012.37 1012.50 1012.70 1012.97 1013.28 1013.57 1013.82 1014.01 1014.15 1014.26 1014.38
1009.32 1009.31 1009.49 1009.79 1010.12 1010.40 1010.54 1010.53 1010.36 1010.09 1009.78 1009.52 1009.35 1009.29 1009.33 1009.42 1009.53 1009.62 1009.68 1009.72 1009.78 1009.90 1010.11 1010.41 1010.78 1011.18 1011.55 1011.84 1012.05 1012.16 1012.21 1012.26 1012.35 1012.52 1012.76 1013.07 1013.41 1013.72 1013.99 1014.18 1014.33 1014.44 1014.56
1009.60 1009.62 1009.80 1010.08 1010.36 1010.58 1010.66 1010.59 1010.39 1010.12 1009.83 1009.60 1009.46 1009.43 1009.48 1009.59 1009.71 1009.80 1009.88 1009.95 1010.04 1010.20 1010.43 1010.74 1011.10 1011.46 1011.78 1012.02 1012.16 1012.23 1012.26 1012.31 1012.42 1012.61 1012.89 1013.23 1013.59 1013.92 1014.18 1014.38 1014.52 1014.64 1014.75
1009.90 1009.93 1010.10 1010.34 1010.58 1010.74 1010.78 1010.68 1010.48 1010.22 1009.97 1009.78 1009.68 1009.68 1009.74 1009.85 1009.96 1010.06 1010.14 1010.23 1010.35 1010.54 1010.80 1011.12 1011.47 1011.81 1012.09 1012.29 1012.39 1012.44 1012.46 1012.51 1012.63 1012.85 1013.15 1013.50 1013.86 1014.18 1014.44 1014.62 1014.75 1014.85 1014.95
1010.15 1010.19 1010.35 1010.55 1010.74 1010.86 1010.87 1010.77 1010.59 1010.38 1010.19 1010.05 1010.00 1010.02 1010.09 1010.19 1010.29 1010.37 1010.45 1010.55 1010.70 1010.92 1011.21 1011.55 1011.91 1012.25 1012.52 1012.70 1012.79 1012.83 1012.85 1012.91 1013.05 1013.27 1013.57 1013.91 1014.25 1014.54 1014.76 1014.91 1015.01 1015.08 1015.16
1010.36 1010.40 1010.52 1010.68 1010.83 1010.91 1010.92 1010.84 1010.71 1010.57 1010.45 1010.38 1010.38 1010.42 1010.49 1010.58 1010.65 1010.71 1010.79 1010.90 1011.07 1011.33 1011.65 1012.03 1012.42 1012.78 1013.06 1013.25 1013.36 1013.42 1013.47 1013.54 1013.69 1013.91 1014.18 1014.48 1014.76 1014.98 1015.14 1015.23 1015.28 1015.31 1015.36
1010.52 1010.54 1010.63 1010.74 1010.85 1010.91 1010.92 1010.88 1010.82 1010.76 1010.72 1010.72 1010.76 1010.82 1010.90 1010.96 1011.01 1011.05 1011.13 1011.25 1011.45 1011.75 1012.12 1012.55 1012.98 1013.38 1013.70 1013.93 1014.08 1014.18 1014.26 1014.37 1014.52 1014.72 1014.95 1015.17 1015.37 1015.50 1015.57 1015.58 1015.56 1015.54 1015.54
1010.65 1010.65 1010.69 1010.76 1010.83 1010.88 1010.91 1010.92 1010.93 1010.94 1010.98 1011.04 1011.12 1011.20 1011.26 1011.30 1011.33 1011.36 1011.44 1011.59 1011.83 1012.17 1012.59 1013.07 1013.55 1014.00 1014.38 1014.67 1014.88 1015.03 1015.17 1015.30 1015.45 1015.62 1015.80 1015.94 1016.03 1016.05 1016.01 1015.93 1015.83 1015.75 1015.70
1010.76 1010.74 1010.75 1010.78 1010.83 1010.87 1010.92 1010.98 1011.05 1011.13 1011.23 1011.34 1011.44 1011.51 1011.56 1011.58 1011.60 1011.63 1011.72 1011.90 1012.18 1012.57 1013.05 1013.57 1014.10 1014.60 1015.03 1015.38 1015.66 1015.87 1016.06 1016.23 1016.39 1016.53 1016.64 1016.70 1016.68 1016.59 1016.44 1016.26 1016.08 1015.94 1015.84
1010.89 1010.86 1010.84 1010.85 1010.88 1010.93 1011.00 1011.10 1011.22 1011.35 1011.49 1011.62 1011.72 1011.79 1011.82 1011.82 1011.83 1011.88 1011.99 1012.21 1012.53 1012.96 1013.47 1014.03 1014.59 1015.12 1015.59 1015.99 1016.32 1016.60 1016.83 1017.04 1017.21 1017.33 1017.39 1017.37 1017.25 1017.06 1016.82 1016.55 1016.31 1016.11 1015.98
1011.05 1011.02 1010.99 1010.99 1011.02 1011.08 1011.17 1011.31 1011.46 1011.63 1011.78 1011.91 1012.00 1012.04 1012.05 1012.05 1012.06 1012.12 1012.27 1012.52 1012.88 1013.34 1013.87 1014.44 1015.00 1015.53 1016.01 1016.43 1016.80 1017.12 1017.40 1017.64 1017.83 1017.94 1017.96 1017.88 1017.70 1017.43 1017.11 1016.79 1016.50 1016.28 1016.14
1011.23 1011.22 1011.20 1011.20 1011.24 1011.32 1011.45 1011.61 1011.78 1011.96 1012.12 1012.23 1012.29 1012.31 1012.30 1012.29 1012.31 1012.40 1012.58 1012.87 1013.26 1013.73 1014.26 1014.80 1015.33 1015.82 1016.27 1016.68 1017.05 1017.39 1017.70 1017.97 1018.18 1018.30 1018.30 1018.19 1017.97 1017.66 1017.30 1016.95 1016.66 1016.44 1016.30
1011.45 1011.45 1011.45 1011.47 1011.53 1011.64 1011.79 1011.97 1012.16 1012.34 1012.48 1012.57 1012.61 1012.60 1012.58 1012.58 1012.62 1012.74 1012.95 1013.27 1013.67 1014.13 1014.62 1015.10 1015.56 1015.99 1016.37 1016.74 1017.08 1017.42 1017.74 1018.03 1018.26 1018.38 1018.39 1018.28 1018.04 1017.72 1017.37 1017.03 1016.75 1016.56 1016.46
1011.67 1011.70 1011.72 1011.76 1011.84 1011.97 1012.14 1012.34 1012.54 1012.72 1012.84 1012.91 1012.93 1012.91 1012.89 1012.89 1012.96 1013.11 1013.36 1013.70 1014.10 1014.53 1014.96 1015.36 1015.73 1016.05 1016.34 1016.63 1016.92 1017.23 1017.54 1017.84 1018.08 1018.22 1018.25 1018.14 1017.92 1017.62 1017.29 1016.99 1016.75 1016.62 1016.57
1011.88 1011.93 1011.96 1012.01 1012.10 1012.24 1012.43 1012.64 1012.85 1013.02 1013.14 1013.20 1013.21 1013.19 1013.17 1013.19 1013.29 1013.48 1013.76 1014.11 1014.50 1014.89 1015.25 1015.56 1015.82 1016.03 1016.21 1016.41 1016.63 1016.89 1017.18 1017.46 1017.70 1017.86 1017.91 1017.83 1017.63 1017.37 1017.08 1016.82 1016.65 1016.57 1016.60
1012.06 1012.11 1012.14 1012.19 1012.27 1012.42 1012.60 1012.81 1013.02 1013.19 1013.31 1013.37 1013.38 1013.36 1013.36 1013.42 1013.55 1013.76 1014.06 1014.42 1014.79 1015.15 1015.44 1015.67 1015.82 1015.93 1016.01 1016.11 1016.26 1016.46 1016.71 1016.98 1017.21 1017.38 1017.43 1017.38 1017.22 1016.99 1016.75 1016.54 1016.43 1016.42 1016.51
1012.22 1012.25 1012.26 1012.27 1012.34 1012.46 1012.62 1012.83 1013.03 1013.20 1013.31 1013.37 1013.39 1013.39 1013.41 1013.49 1013.64 1013.89 1014.20 1014.56 1014.92 1015.24 1015.49 1015.65 1015.73 1015.75 1015.76 1015.78 1015.86 1016.01 1016.21 1016.45 1016.67 1016.83 1016.89 1016.86 1016.72 1016.53 1016.33 1016.18 1016.11 1016.15 1016.30
Thickness
5770 5771 5770 5770 5769 5769 5769 5769 5769 5769 5768 5768 5768 5768 5768 5768 5768 5768 5768 5768 5768 5768 5769 5769 5770 5770 5770 5769 5769 5769 5769 5769 5769 5769 5768 5768 5768 5768 5768 5769 5769 5769 5769
5772 5770 5768 5768 5767 5767 5766 5766 5766 5766 5766 5766 5766 5765 5765 5765 5765 5765 5765 5765 5765 5765 5766 5766 5767 5767 5767 5767 5766 5766 5766 5766 5766 5766 5765 5765 5765 5765 5766 5766 5766 5766 5766
5772 5769 5766 5765 5765 5764 5764 5763 5763 5763 5763 5763 5762 5762 5762 5762 5762 5762 5762 5762 5762 5763 5763 5764 5764 5764 5764 5764 5763 5763 5763 5763 5764 5763 5763 5762 5762 5763 5763 5763 5764 5764 5764
5771 5767 5764 5763 5762 5762 5761 5760 5760 5760 5760 5759 5759 5759 5759 5759 5759 5758 5759 5759 5759 5760 5760 5761 5761 5761 5761 5761 5760 5760 5760 5761 5760 5761 5760 5760 5760 5760 5760 5760 5760 5761 5761
5769 5765 5761 5761 5760 5759 5758 5757 5757 5757 5757 5757 5757 5756 5756 5756 5755 5755 5755 5756 5756 5757 5759 5760 5759 5759 5759 5758 5758 5757 5757 5757 5757 5757 5757 5757 5756 5756 5756 5757 5757 5757 5758
5767 5763 5760 5759 5757 5757 5756 5754 5754 5754 5753 5753 5753 5753 5753 5752 5752 5752 5752 5752 5753 5754 5756 5756 5755 5755 5756 5755 5755 5754 5754 5754 5754 5754 5754 5754 5753 5753 5753 5753 5753 5754 5754
5766 5763 5759 5756 5755 5754 5753 5752 5751 5751 5750 5750 5750 5750 5749 5749 5749 5748 5748 5748 5749 5749 5750 5751 5751 5751 5751 5751 5751 5751 5750 5750 5750 5750 5750 5750 5750 5750 5749 5749 5750 5750 5751
5765 5762 5757 5755 5753 5752 5751 5749 5749 5748 5748 5747 5747 5746 5746 5745 5745 5744 5744 5744 5745 5745 5745 5746 5747 5747 5747 5748 5748 5747 5747 5747 5747 5746 5746 5746 5746 5746 5745 5745 5745 5746 5746
5765 5762 5758 5754 5752 5750 5748 5747 5746 5746 5745 5744 5744 5743 5743 5742 5741 5741 5741 5741 5741 5741 5742 5742 5743 5743 5743 5744 5743 5743 5743 5743 5743 5742 5742 5741 5741 5741 5741 5741 5741 5742 5742
5763 5761 5759 5756 5753 5749 5747 5745 5744 5744 5743 5742 5741 5741 5740 5739 5738 5738 5737 5737 5737 5737 5738 5738 5739 5739 5739 5740 5739 5739 5740 5740 5739 5738 5737 5737 5737 5737 5737 5737 5737 5737 5737
5760 5760 5759 5756 5753 5750 5748 5745 5743 5742 5741 5740 5739 5738 5738 5737 5736 5735 5734 5734 5734 5734 5734 5735 5735 5735 5735 5735 5735 5735 5736 5735 5734 5733 5732 5733 5733 5733 5732 5732 5732 5732 5733
5754 5757 5757 5755 5752 5750 5748 5744 5743 5741 5740 5739 5738 5737 5736 5735 5734 5733 5731 5731 5730 5730 5730 5731 5731 5731 5732 5732 5731 5731 5731 5731 5730 5729 5728 5728 5728 5728 5728 5728 5728 5728 5728
5755 5754 5755 5754 5752 5749 5746 5744 5742 5741 5739 5738 5737 5736 5735 5733 5732 5730 5729 5728 5728 5728 5728 5728 5728 5728 5728 5728 5728 5727 5727 5726 5725 5723 5723 5724 5724 5724 5723 5723 5723 5723 5723
5754 5753 5753 5753 5751 5748 5745 5743 5741 5739 5738 5737 5736 5734 5733 5731 5730 5729 5727 5726 5726 5725 5724 5724 5725 5724 5724 5724 5723 5723 5722 5721 5719 5718 5718 5718 5719 5719 5719 5718 5718 5718 5719
5752 5751 5751 5751 5749 5746 5744 5742 5740 5738 5737 5735 5734 5733 5732 5730 5728 5727 5726 5724 5723 5723 5722 5721 5721 5720 5720 5719 5718 5718 5717 5716 5715 5714 5713 5713 5714 5714 5714 5714 5714 5714 5714
5751 5750 5749 5749 5748 5745 5742 5740 5738 5737 5735 5734 5732 5731 5730 5729 5727 5725 5724 5722 5721 5720 5718 5717 5717 5716 5714 5713 5713 5712 5712 5712 5711 5710 5708 5708 5708 5708 5708 5709 5709 5709 5709
5752 5750 5747 5747 5746 5743 5740 5739 5737 5735 5733 5732 5730 5729 5728 5727 5725 5723 5721 5719 5718 5717 5716 5714 5713 5711 5710 5709 5707 5707 5707 5706 5706 5705 5704 5703 5703 5703 5703 5703 5703 5704 5704
5751 5748 5746 5746 5743 5741 5738 5736 5735 5733 5731 5729 5728 5727 5726 5725 5723 5720 5718 5717 5716 5714 5713 5711 5708 5706 5705 5703 5702 5702 5702 5701 5701 5701 5700 5699 5699 5698 5697 5698 5698 5699 5699
5751 5748 5745 5743 5740 5738 5736 5734 5732 5730 5728 5726 5725 5724 5723 5721 5720 5718 5716 5715 5714 5712 5710 5708 5705 5703 5700 5699 5698 5697 5697 5697 5696 5696 5696 5695 5694 5694 5693 5693 5693 5693 5694
5751 5749 5744 5742 5739 5736 5733 5731 5728 5726 5724 5723 5722 5720 5719 5718 5716 5715 5714 5712 5711 5708 5706 5704 5702 5701 5698 5697 5696 5694 5693 5692 5692 5691 5691 5691 5690 5689 5689 5688 5688 5688 5688
5748 5746 5743 5739 5736 5733 5729 5725 5722 5720 5720 5719 5719 5717 5716 5715 5714 5713 5711 5709 5707 5704 5702 5701 5699 5697 5695 5694 5691 5687 5687 5689 5687 5687 5686 5686 5685 5685 5685 5684 5684 5684 5683
5746 5744 5742 5738 5735 5732 5728 5726 5723 5720 5718 5717 5716 5715 5714 5713 5712 5711 5709 5706 5705 5702 5699 5698 5696 5693 5692 5693 5688 5683 5678 5678 5680 5683 5682 5681 5681 5681 5680 5680 5680 5679 5679
5744 5743 5741 5737 5734 5730 5727 5725 5721 5718 5715 5713 5711 5711 5711 5710 5709 5708 5706 5705 5703 5700 5697 5696 5694 5691 5688 5689 5689 5683 5675 5670 5672 5675 5677 5677 5676 5676 5675 5675 5674 5674 5673
5743 5743 5740 5736 5733 5730 5726 5722 5717 5712 5708 5709 5709 5708 5709 5708 5707 5706 5704 5702 5700 5699 5696 5695 5693 5691 5688 5684 5685 5685 5682 5678 5670 5666 5669 5672 5672 5671 5671 5670 5669 5668 5667
5743 5740 5738 5734 5730 5727 5724 5720 5716 5712 5710 5709 5709 5707 5706 5705 5704 5703 5702 5700 5699 5697 5695 5694 5691 5690 5687 5684 5681 5680 5679 5677 5675 5667 5661 5663 5665 5666 5667 5666 5664 5663 5661
5741 5737 5734 5730 5727 5725 5722 5719 5715 5711 5709 5706 5704 5702 5702 5701 5701 5701 5700 5698 5697 5695 5694 5692 5690 5688 5686 5684 5682 5680 5677 5673 5670 5667 5661 5659 5658 5660 5662 5662 5660 5658 5657